Back to Top

Language: 

My Weather Underground Personal Weather Station Historical Data with Graphs...

Delerius Weather Station Historical Data
Daily Summary for October 3, 2017 Units:  English    Metric   Both
« Previous Day
Next Day »
Daily Weekly Monthly Yearly Custom
  High: Low: Average:
Temperature: 56.7 °F 50.4 °F 52.7 °F
Dew Point: 48.6 °F 43.1 °F 46.3 °F
Humidity: 87 % 68 % 79 %
Wind Speed: 19.0 mph 3.0 mph 10.7 mph
Wind Gust: 30.0 mph - -
Wind:- - WNW
Pressure: 30.19 in 29.91 in -
Precipitation: 0.00 in    
Historical Graphs
 
 
Tabular Data for October 3, 2017
Time Temperature Dew Point Pressure Wind Wind Speed Wind Gust Humidity Rainfall Rate (Hourly) solar Conditions
00:04 51.3 °F 46.9 °F 29.91 in WNW 10.0 mph 21.0 mph 85 % 0.00 in 0 W/m2
00:09 51.3 °F 46.9 °F 29.91 in WNW 11.0 mph 22.0 mph 85 % 0.00 in 0 W/m2
00:14 51.3 °F 46.9 °F 29.92 in West 12.0 mph 22.0 mph 85 % 0.00 in 0 W/m2
00:19 51.3 °F 46.9 °F 29.92 in WNW 10.0 mph 21.0 mph 85 % 0.00 in 0 W/m2
00:24 51.3 °F 46.9 °F 29.92 in WNW 11.0 mph 23.0 mph 85 % 0.00 in 0 W/m2
00:29 51.3 °F 46.9 °F 29.92 in WNW 14.0 mph 23.0 mph 85 % 0.00 in 0 W/m2
00:34 51.3 °F 46.9 °F 29.92 in WNW 14.0 mph 23.0 mph 85 % 0.00 in 0 W/m2
00:39 51.3 °F 46.9 °F 29.92 in WNW 13.0 mph 23.0 mph 85 % 0.00 in 0 W/m2
00:44 51.3 °F 46.9 °F 29.92 in WNW 13.0 mph 21.0 mph 85 % 0.00 in 0 W/m2
00:49 51.3 °F 46.9 °F 29.92 in WNW 12.0 mph 21.0 mph 85 % 0.00 in 0 W/m2
00:54 51.1 °F 46.7 °F 29.92 in WNW 12.0 mph 24.0 mph 85 % 0.00 in 0 W/m2
00:59 51.1 °F 46.7 °F 29.92 in WNW 12.0 mph 24.0 mph 85 % 0.00 in 0 W/m2
01:04 51.1 °F 46.7 °F 29.92 in WNW 10.0 mph 21.0 mph 85 % 0.00 in 0 W/m2
01:09 51.1 °F 46.7 °F 29.92 in WNW 10.0 mph 18.0 mph 85 % 0.00 in 0 W/m2
01:14 50.9 °F 46.6 °F 29.93 in WNW 9.0 mph 18.0 mph 85 % 0.00 in 0 W/m2
01:19 50.9 °F 46.6 °F 29.92 in WNW 10.0 mph 18.0 mph 85 % 0.00 in 0 W/m2
01:24 50.9 °F 46.6 °F 29.93 in WNW 11.0 mph 18.0 mph 85 % 0.00 in 0 W/m2
01:29 50.9 °F 46.6 °F 29.93 in WNW 11.0 mph 21.0 mph 85 % 0.00 in 0 W/m2
01:34 50.9 °F 46.9 °F 29.94 in WNW 12.0 mph 21.0 mph 86 % 0.00 in 0 W/m2
01:39 50.9 °F 46.9 °F 29.94 in WNW 11.0 mph 21.0 mph 86 % 0.00 in 0 W/m2
01:44 50.9 °F 46.6 °F 29.94 in WNW 11.0 mph 23.0 mph 85 % 0.00 in 0 W/m2
01:49 50.9 °F 46.6 °F 29.94 in WNW 10.0 mph 23.0 mph 85 % 0.00 in 0 W/m2
01:55 51.1 °F 47.0 °F 29.94 in WNW 11.0 mph 18.0 mph 86 % 0.00 in 0 W/m2
02:00 51.1 °F 46.7 °F 29.94 in West 12.0 mph 18.0 mph 85 % 0.00 in 0 W/m2
02:05 51.3 °F 46.9 °F 29.94 in West 13.0 mph 24.0 mph 85 % 0.00 in 0 W/m2
02:10 51.4 °F 47.1 °F 29.95 in West 14.0 mph 24.0 mph 85 % 0.00 in 0 W/m2
02:15 51.4 °F 47.1 °F 29.95 in WNW 13.0 mph 23.0 mph 85 % 0.00 in 0 W/m2
02:20 51.4 °F 47.1 °F 29.95 in WNW 12.0 mph 21.0 mph 85 % 0.00 in 0 W/m2
02:25 51.4 °F 46.8 °F 29.95 in WNW 12.0 mph 20.0 mph 84 % 0.00 in 0 W/m2
02:30 51.4 °F 47.1 °F 29.95 in WNW 11.0 mph 20.0 mph 85 % 0.00 in 0 W/m2
02:35 51.4 °F 47.1 °F 29.96 in WNW 11.0 mph 21.0 mph 85 % 0.00 in 0 W/m2
02:40 51.4 °F 47.1 °F 29.96 in WNW 11.0 mph 21.0 mph 85 % 0.00 in 0 W/m2
02:45 51.4 °F 47.1 °F 29.97 in West 11.0 mph 22.0 mph 85 % 0.00 in 0 W/m2
02:50 51.6 °F 47.3 °F 29.97 in WNW 14.0 mph 24.0 mph 85 % 0.00 in 0 W/m2
02:55 51.6 °F 46.9 °F 29.97 in WNW 13.0 mph 24.0 mph 84 % 0.00 in 0 W/m2
03:00 51.6 °F 47.3 °F 29.97 in WNW 11.0 mph 21.0 mph 85 % 0.00 in 0 W/m2
03:05 51.6 °F 47.3 °F 29.97 in WNW 11.0 mph 19.0 mph 85 % 0.00 in 0 W/m2
03:10 51.6 °F 47.3 °F 29.97 in WNW 13.0 mph 23.0 mph 85 % 0.00 in 0 W/m2
03:15 51.4 °F 47.1 °F 29.97 in WNW 13.0 mph 23.0 mph 85 % 0.00 in 0 W/m2
03:20 51.4 °F 47.1 °F 29.96 in WNW 12.0 mph 22.0 mph 85 % 0.00 in 0 W/m2
03:25 51.4 °F 47.1 °F 29.96 in WNW 12.0 mph 22.0 mph 85 % 0.00 in 0 W/m2
03:30 51.4 °F 47.4 °F 29.97 in WNW 13.0 mph 22.0 mph 86 % 0.00 in 0 W/m2
03:35 51.4 °F 47.4 °F 29.96 in WNW 13.0 mph 24.0 mph 86 % 0.00 in 0 W/m2
03:40 51.4 °F 47.4 °F 29.97 in WNW 13.0 mph 24.0 mph 86 % 0.00 in 0 W/m2
03:45 51.4 °F 47.4 °F 29.97 in WNW 13.0 mph 21.0 mph 86 % 0.00 in 0 W/m2
03:50 51.3 °F 47.2 °F 29.97 in WNW 13.0 mph 26.0 mph 86 % 0.00 in 0 W/m2
03:55 51.3 °F 46.9 °F 29.98 in WNW 13.0 mph 26.0 mph 85 % 0.00 in 0 W/m2
04:00 51.3 °F 46.9 °F 29.98 in WNW 12.0 mph 20.0 mph 85 % 0.00 in 0 W/m2
04:05 51.3 °F 46.9 °F 29.97 in WNW 12.0 mph 22.0 mph 85 % 0.00 in 0 W/m2
04:10 51.1 °F 46.7 °F 29.97 in WNW 13.0 mph 27.0 mph 85 % 0.00 in 0 W/m2
04:16 51.1 °F 46.7 °F 29.98 in WNW 13.0 mph 27.0 mph 85 % 0.00 in 0 W/m2
04:21 51.1 °F 47.0 °F 29.98 in WNW 11.0 mph 24.0 mph 86 % 0.00 in 0 W/m2
04:22 51.1 °F 47.0 °F 29.98 in WNW 11.0 mph 21.0 mph 86 % 0.00 in 0 W/m2
04:23 51.1 °F 47.0 °F 29.98 in WNW 10.0 mph 20.0 mph 86 % 0.00 in 0 W/m2
04:25 51.1 °F 47.0 °F 29.98 in WNW 10.0 mph 16.0 mph 86 % 0.00 in 0 W/m2
04:27 51.1 °F 47.0 °F 29.98 in WNW 11.0 mph 23.0 mph 86 % 0.00 in 0 W/m2
04:32 51.1 °F 47.0 °F 29.98 in WNW 12.0 mph 23.0 mph 86 % 0.00 in 0 W/m2
04:37 51.1 °F 47.0 °F 29.98 in WNW 12.0 mph 23.0 mph 86 % 0.00 in 0 W/m2
04:42 51.1 °F 47.0 °F 29.98 in WNW 13.0 mph 23.0 mph 86 % 0.00 in 0 W/m2
04:47 50.9 °F 47.2 °F 29.98 in WNW 13.0 mph 23.0 mph 87 % 0.00 in 0 W/m2
04:52 50.9 °F 46.9 °F 29.98 in WNW 13.0 mph 25.0 mph 86 % 0.00 in 0 W/m2
04:57 51.1 °F 47.0 °F 29.99 in WNW 15.0 mph 26.0 mph 86 % 0.00 in 0 W/m2
05:02 51.3 °F 46.9 °F 29.99 in WNW 15.0 mph 26.0 mph 85 % 0.00 in 0 W/m2
05:07 51.3 °F 46.9 °F 29.99 in WNW 14.0 mph 26.0 mph 85 % 0.00 in 0 W/m2
05:12 51.3 °F 46.6 °F 29.99 in WNW 13.0 mph 25.0 mph 84 % 0.00 in 0 W/m2
05:17 51.3 °F 46.6 °F 29.99 in WNW 13.0 mph 25.0 mph 84 % 0.00 in 0 W/m2
05:22 51.3 °F 46.6 °F 29.99 in WNW 13.0 mph 25.0 mph 84 % 0.00 in 0 W/m2
05:27 51.3 °F 46.6 °F 29.99 in WNW 13.0 mph 22.0 mph 84 % 0.00 in 0 W/m2
05:32 51.3 °F 46.6 °F 29.99 in WNW 11.0 mph 22.0 mph 84 % 0.00 in 0 W/m2
05:37 51.1 °F 46.4 °F 29.99 in WNW 8.0 mph 20.0 mph 84 % 0.00 in 0 W/m2
05:42 51.1 °F 46.4 °F 29.99 in WNW 9.0 mph 20.0 mph 84 % 0.00 in 0 W/m2
05:47 51.1 °F 46.4 °F 30.00 in WNW 11.0 mph 20.0 mph 84 % 0.00 in 0 W/m2
05:53 51.3 °F 46.6 °F 30.00 in WNW 12.0 mph 21.0 mph 84 % 0.00 in 0 W/m2
05:58 51.3 °F 46.3 °F 29.99 in WNW 13.0 mph 21.0 mph 83 % 0.00 in 0 W/m2
06:03 51.3 °F 46.3 °F 30.00 in WNW 13.0 mph 21.0 mph 83 % 0.00 in 0 W/m2
06:08 51.3 °F 46.6 °F 30.00 in WNW 12.0 mph 20.0 mph 84 % 0.00 in 0 W/m2
06:13 51.1 °F 46.4 °F 30.00 in WNW 13.0 mph 22.0 mph 84 % 0.00 in 0 W/m2
06:18 51.1 °F 46.4 °F 30.00 in WNW 14.0 mph 24.0 mph 84 % 0.00 in 0 W/m2
06:23 51.1 °F 46.4 °F 30.00 in WNW 15.0 mph 24.0 mph 84 % 0.00 in 0 W/m2
06:28 51.1 °F 46.4 °F 30.00 in WNW 15.0 mph 24.0 mph 84 % 0.00 in 0 W/m2
06:33 50.9 °F 46.2 °F 30.01 in WNW 14.0 mph 24.0 mph 84 % 0.00 in 0 W/m2
06:38 50.9 °F 46.2 °F 30.01 in WNW 14.0 mph 23.0 mph 84 % 0.00 in 0 W/m2
06:43 50.9 °F 46.2 °F 30.01 in WNW 14.0 mph 27.0 mph 84 % 0.00 in 0 W/m2
06:48 50.7 °F 46.1 °F 30.01 in WNW 14.0 mph 27.0 mph 84 % 0.00 in 0 W/m2
06:53 50.7 °F 46.4 °F 30.02 in WNW 13.0 mph 24.0 mph 85 % 0.00 in 0 W/m2
06:58 50.5 °F 46.2 °F 30.02 in WNW 12.0 mph 25.0 mph 85 % 0.00 in 0 W/m2
06:59 50.5 °F 46.2 °F 30.02 in WNW 12.0 mph 25.0 mph 85 % 0.00 in 0 W/m2
07:04 50.4 °F 46.0 °F 30.03 in WNW 12.0 mph 22.0 mph 85 % 0.00 in 5 W/m2
07:09 50.4 °F 46.0 °F 30.03 in WNW 11.0 mph 22.0 mph 85 % 0.00 in 5 W/m2
07:14 50.5 °F 46.5 °F 30.03 in WNW 11.0 mph 20.0 mph 86 % 0.00 in 11 W/m2
07:19 50.5 °F 46.5 °F 30.03 in WNW 11.0 mph 21.0 mph 86 % 0.00 in 11 W/m2
07:24 50.5 °F 46.5 °F 30.03 in WNW 12.0 mph 24.0 mph 86 % 0.00 in 12 W/m2
07:29 50.5 °F 46.5 °F 30.02 in WNW 12.0 mph 24.0 mph 86 % 0.00 in 14 W/m2
07:34 50.5 °F 46.5 °F 30.03 in WNW 12.0 mph 25.0 mph 86 % 0.00 in 18 W/m2
07:39 50.5 °F 46.2 °F 30.03 in WNW 15.0 mph 27.0 mph 85 % 0.00 in 21 W/m2
07:44 50.5 °F 46.2 °F 30.04 in WNW 14.0 mph 27.0 mph 85 % 0.00 in 25 W/m2
07:50 50.5 °F 46.2 °F 30.04 in WNW 11.0 mph 19.0 mph 85 % 0.00 in 53 W/m2
07:55 50.7 °F 46.4 °F 30.05 in WNW 10.0 mph 21.0 mph 85 % 0.00 in 76 W/m2
08:00 51.1 °F 46.7 °F 30.05 in WNW 11.0 mph 21.0 mph 85 % 0.00 in 81 W/m2
08:05 51.3 °F 46.9 °F 30.05 in WNW 12.0 mph 21.0 mph 85 % 0.00 in 134 W/m2
08:10 51.4 °F 47.1 °F 30.05 in WNW 10.0 mph 21.0 mph 85 % 0.00 in 37 W/m2
08:15 51.6 °F 46.9 °F 30.06 in WNW 12.0 mph 30.0 mph 84 % 0.00 in 21 W/m2
08:20 51.6 °F 46.9 °F 30.06 in WNW 14.0 mph 30.0 mph 84 % 0.00 in 26 W/m2
08:25 51.4 °F 46.4 °F 30.06 in WNW 13.0 mph 22.0 mph 83 % 0.00 in 32 W/m2
08:30 51.4 °F 46.4 °F 30.07 in WNW 13.0 mph 22.0 mph 83 % 0.00 in 40 W/m2
08:35 51.4 °F 46.1 °F 30.07 in WNW 12.0 mph 22.0 mph 82 % 0.00 in 39 W/m2
08:40 51.4 °F 46.1 °F 30.07 in WNW 11.0 mph 21.0 mph 82 % 0.00 in 88 W/m2
08:45 51.4 °F 46.1 °F 30.08 in WNW 11.0 mph 24.0 mph 82 % 0.00 in 67 W/m2
08:50 51.6 °F 46.3 °F 30.08 in WNW 13.0 mph 24.0 mph 82 % 0.00 in 49 W/m2
08:55 51.6 °F 46.3 °F 30.08 in WNW 14.0 mph 25.0 mph 82 % 0.00 in 53 W/m2
09:00 51.6 °F 46.6 °F 30.08 in NW 13.0 mph 25.0 mph 83 % 0.00 in 60 W/m2
09:05 51.6 °F 46.6 °F 30.09 in WNW 12.0 mph 20.0 mph 83 % 0.00 in 69 W/m2
09:10 51.6 °F 46.6 °F 30.09 in WNW 11.0 mph 20.0 mph 83 % 0.00 in 44 W/m2
09:15 51.6 °F 46.6 °F 30.09 in WNW 10.0 mph 21.0 mph 83 % 0.00 in 62 W/m2
09:20 52.0 °F 47.0 °F 30.09 in WNW 10.0 mph 21.0 mph 83 % 0.00 in 104 W/m2
09:25 52.3 °F 47.3 °F 30.10 in WNW 10.0 mph 21.0 mph 83 % 0.00 in 146 W/m2
09:30 52.7 °F 47.4 °F 30.10 in WNW 9.0 mph 21.0 mph 82 % 0.00 in 67 W/m2
09:35 52.9 °F 47.2 °F 30.11 in WNW 10.0 mph 22.0 mph 81 % 0.00 in 91 W/m2
09:40 52.9 °F 47.2 °F 30.11 in WNW 10.0 mph 22.0 mph 81 % 0.00 in 104 W/m2
09:45 53.1 °F 46.7 °F 30.12 in WNW 11.0 mph 22.0 mph 79 % 0.00 in 496 W/m2
09:50 53.4 °F 47.1 °F 30.12 in WNW 10.0 mph 22.0 mph 79 % 0.00 in 183 W/m2
09:55 53.6 °F 46.9 °F 30.12 in WNW 8.0 mph 16.0 mph 78 % 0.00 in 74 W/m2
10:00 53.6 °F 46.6 °F 30.12 in WNW 10.0 mph 20.0 mph 77 % 0.00 in 105 W/m2
10:05 53.4 °F 46.4 °F 30.12 in WNW 11.0 mph 22.0 mph 77 % 0.00 in 111 W/m2
10:10 53.2 °F 46.2 °F 30.13 in WNW 11.0 mph 22.0 mph 77 % 0.00 in 132 W/m2
10:16 53.2 °F 46.2 °F 30.13 in WNW 12.0 mph 22.0 mph 77 % 0.00 in 148 W/m2
10:21 53.2 °F 46.2 °F 30.13 in WNW 11.0 mph 20.0 mph 77 % 0.00 in 167 W/m2
10:25 53.2 °F 46.2 °F 30.13 in WNW 9.0 mph 20.0 mph 77 % 0.00 in 257 W/m2
10:30 53.6 °F 46.6 °F 30.14 in WNW 8.0 mph 19.0 mph 77 % 0.00 in 292 W/m2
10:35 54.0 °F 46.6 °F 30.14 in WNW 8.0 mph 19.0 mph 76 % 0.00 in 278 W/m2
10:41 54.3 °F 46.6 °F 30.14 in WNW 10.0 mph 21.0 mph 75 % 0.00 in 499 W/m2
10:45 54.9 °F 47.1 °F 30.14 in WNW 12.0 mph 23.0 mph 75 % 0.00 in 515 W/m2
10:50 55.2 °F 47.4 °F 30.14 in WNW 13.0 mph 26.0 mph 75 % 0.00 in 499 W/m2
10:56 55.6 °F 47.4 °F 30.13 in WNW 14.0 mph 26.0 mph 74 % 0.00 in 519 W/m2
11:01 55.8 °F 47.6 °F 30.13 in WNW 16.0 mph 28.0 mph 74 % 0.00 in 552 W/m2
11:06 55.9 °F 47.4 °F 30.14 in WNW 19.0 mph 30.0 mph 73 % 0.00 in 536 W/m2
11:11 56.1 °F 47.9 °F 30.14 in WNW 18.0 mph 30.0 mph 74 % 0.00 in 573 W/m2
11:16 56.7 °F 48.5 °F 30.15 in WNW 15.0 mph 27.0 mph 74 % 0.00 in 557 W/m2
11:21 56.7 °F 47.7 °F 30.15 in WNW 15.0 mph 27.0 mph 72 % 0.00 in 121 W/m2
11:26 55.9 °F 48.1 °F 30.15 in WNW 14.0 mph 25.0 mph 75 % 0.00 in 77 W/m2
11:31 55.0 °F 48.3 °F 30.16 in WNW 12.0 mph 22.0 mph 78 % 0.00 in 58 W/m2
11:36 54.3 °F 48.6 °F 30.16 in WNW 11.0 mph 21.0 mph 81 % 0.00 in 176 W/m2
11:41 54.0 °F 48.6 °F 30.16 in WNW 9.0 mph 16.0 mph 82 % 0.00 in 225 W/m2
11:46 53.8 °F 48.1 °F 30.16 in WNW 10.0 mph 16.0 mph 81 % 0.00 in 197 W/m2
11:51 53.8 °F 48.1 °F 30.16 in WNW 11.0 mph 22.0 mph 81 % 0.00 in 325 W/m2
11:56 53.8 °F 47.8 °F 30.16 in WNW 12.0 mph 22.0 mph 80 % 0.00 in 142 W/m2
12:01 54.0 °F 47.6 °F 30.16 in WNW 12.0 mph 23.0 mph 79 % 0.00 in 204 W/m2
12:06 54.0 °F 47.6 °F 30.15 in WNW 10.0 mph 23.0 mph 79 % 0.00 in 199 W/m2
12:11 54.1 °F 47.4 °F 30.15 in WNW 10.0 mph 18.0 mph 78 % 0.00 in 142 W/m2
12:16 54.1 °F 47.1 °F 30.16 in WNW 10.0 mph 18.0 mph 77 % 0.00 in 135 W/m2
12:21 54.3 °F 46.9 °F 30.16 in WNW 9.0 mph 18.0 mph 76 % 0.00 in 274 W/m2
12:26 54.7 °F 47.3 °F 30.16 in WNW 8.0 mph 18.0 mph 76 % 0.00 in 561 W/m2
12:31 55.2 °F 47.4 °F 30.16 in West 7.0 mph 13.0 mph 75 % 0.00 in 162 W/m2
12:36 55.6 °F 47.1 °F 30.16 in West 8.0 mph 16.0 mph 73 % 0.00 in 98 W/m2
12:41 55.6 °F 46.7 °F 30.17 in West 10.0 mph 19.0 mph 72 % 0.00 in 83 W/m2
12:46 55.6 °F 46.7 °F 30.17 in WNW 12.0 mph 25.0 mph 72 % 0.00 in 130 W/m2
12:51 55.4 °F 46.5 °F 30.17 in WNW 14.0 mph 25.0 mph 72 % 0.00 in 120 W/m2
12:56 55.2 °F 46.7 °F 30.17 in WNW 14.0 mph 26.0 mph 73 % 0.00 in 132 W/m2
13:01 55.0 °F 46.5 °F 30.17 in WNW 14.0 mph 26.0 mph 73 % 0.00 in 183 W/m2
13:06 55.0 °F 46.5 °F 30.17 in WNW 14.0 mph 25.0 mph 73 % 0.00 in 114 W/m2
13:11 55.0 °F 46.5 °F 30.17 in WNW 13.0 mph 25.0 mph 73 % 0.00 in 206 W/m2
13:16 55.0 °F 46.5 °F 30.17 in WNW 12.0 mph 22.0 mph 73 % 0.00 in 304 W/m2
13:21 55.4 °F 46.5 °F 30.17 in WNW 11.0 mph 22.0 mph 72 % 0.00 in 287 W/m2
13:26 55.6 °F 46.7 °F 30.17 in West 12.0 mph 22.0 mph 72 % 0.00 in 160 W/m2
13:31 55.8 °F 46.5 °F 30.17 in West 12.0 mph 20.0 mph 71 % 0.00 in 155 W/m2
13:36 55.8 °F 46.9 °F 30.17 in WNW 11.0 mph 16.0 mph 72 % 0.00 in 178 W/m2
13:41 55.9 °F 46.7 °F 30.17 in West 11.0 mph 19.0 mph 71 % 0.00 in 199 W/m2
13:46 55.9 °F 47.0 °F 30.17 in West 12.0 mph 19.0 mph 72 % 0.00 in 251 W/m2
13:51 56.1 °F 47.2 °F 30.17 in WNW 13.0 mph 25.0 mph 72 % 0.00 in 200 W/m2
13:56 55.9 °F 46.3 °F 30.17 in WNW 14.0 mph 26.0 mph 70 % 0.00 in 171 W/m2
14:01 55.9 °F 46.3 °F 30.17 in WNW 13.0 mph 26.0 mph 70 % 0.00 in 197 W/m2
14:06 55.8 °F 46.1 °F 30.16 in WNW 12.0 mph 22.0 mph 70 % 0.00 in 236 W/m2
14:11 55.6 °F 46.3 °F 30.16 in West 14.0 mph 25.0 mph 71 % 0.00 in 241 W/m2
14:16 55.4 °F 46.5 °F 30.17 in West 15.0 mph 25.0 mph 72 % 0.00 in 225 W/m2
14:21 55.2 °F 46.3 °F 30.17 in West 13.0 mph 23.0 mph 72 % 0.00 in 128 W/m2
14:26 55.0 °F 46.9 °F 30.17 in WNW 13.0 mph 20.0 mph 74 % 0.00 in 98 W/m2
14:31 54.9 °F 46.4 °F 30.17 in WNW 14.0 mph 26.0 mph 73 % 0.00 in 141 W/m2
14:36 54.7 °F 46.6 °F 30.17 in WNW 15.0 mph 26.0 mph 74 % 0.00 in 214 W/m2
14:41 54.7 °F 47.3 °F 30.17 in WNW 13.0 mph 23.0 mph 76 % 0.00 in 244 W/m2
14:46 54.7 °F 47.6 °F 30.17 in WNW 12.0 mph 20.0 mph 77 % 0.00 in 343 W/m2
14:51 55.0 °F 47.6 °F 30.17 in WNW 10.0 mph 18.0 mph 76 % 0.00 in 162 W/m2
14:56 55.0 °F 46.9 °F 30.17 in WNW 11.0 mph 20.0 mph 74 % 0.00 in 102 W/m2
15:01 55.0 °F 46.9 °F 30.17 in WNW 11.0 mph 20.0 mph 74 % 0.00 in 77 W/m2
15:06 55.0 °F 46.9 °F 30.17 in WNW 11.0 mph 23.0 mph 74 % 0.00 in 46 W/m2
15:11 54.9 °F 47.1 °F 30.17 in WNW 11.0 mph 23.0 mph 75 % 0.00 in 67 W/m2
15:16 54.7 °F 47.6 °F 30.17 in WNW 9.0 mph 16.0 mph 77 % 0.00 in 113 W/m2
15:21 54.3 °F 46.9 °F 30.17 in WNW 11.0 mph 24.0 mph 76 % 0.00 in 176 W/m2
15:26 54.3 °F 46.2 °F 30.18 in WNW 13.0 mph 24.0 mph 74 % 0.00 in 162 W/m2
15:31 54.3 °F 46.2 °F 30.18 in WNW 13.0 mph 22.0 mph 74 % 0.00 in 149 W/m2
15:36 54.7 °F 46.2 °F 30.18 in WNW 13.0 mph 22.0 mph 73 % 0.00 in 130 W/m2
15:41 54.7 °F 46.2 °F 30.17 in WNW 12.0 mph 20.0 mph 73 % 0.00 in 144 W/m2
15:46 54.9 °F 46.4 °F 30.18 in WNW 12.0 mph 20.0 mph 73 % 0.00 in 151 W/m2
15:51 54.9 °F 46.4 °F 30.18 in WNW 12.0 mph 21.0 mph 73 % 0.00 in 165 W/m2
15:57 55.0 °F 46.2 °F 30.18 in WNW 12.0 mph 21.0 mph 72 % 0.00 in 132 W/m2
16:02 55.0 °F 46.2 °F 30.19 in WNW 12.0 mph 22.0 mph 72 % 0.00 in 111 W/m2
16:07 55.0 °F 46.2 °F 30.19 in WNW 12.0 mph 24.0 mph 72 % 0.00 in 91 W/m2
16:12 54.9 °F 46.0 °F 30.19 in WNW 11.0 mph 24.0 mph 72 % 0.00 in 84 W/m2
16:13 54.9 °F 46.0 °F 30.19 in WNW 11.0 mph 22.0 mph 72 % 0.00 in 83 W/m2
16:19 54.9 °F 46.0 °F 30.19 in WNW 10.0 mph 22.0 mph 72 % 0.00 in 93 W/m2
16:24 54.9 °F 45.6 °F 30.19 in WNW 10.0 mph 19.0 mph 71 % 0.00 in 107 W/m2
16:29 54.9 °F 45.6 °F 30.18 in WNW 11.0 mph 19.0 mph 71 % 0.00 in 98 W/m2
16:34 54.7 °F 45.5 °F 30.18 in WNW 11.0 mph 20.0 mph 71 % 0.00 in 107 W/m2
16:39 54.7 °F 45.1 °F 30.18 in WNW 12.0 mph 21.0 mph 70 % 0.00 in 100 W/m2
16:44 54.7 °F 45.5 °F 30.19 in WNW 12.0 mph 21.0 mph 71 % 0.00 in 93 W/m2
16:49 54.7 °F 45.5 °F 30.18 in WNW 12.0 mph 23.0 mph 71 % 0.00 in 88 W/m2
16:54 54.5 °F 45.3 °F 30.18 in WNW 10.0 mph 23.0 mph 71 % 0.00 in 86 W/m2
16:59 54.3 °F 44.7 °F 30.18 in WNW 10.0 mph 19.0 mph 70 % 0.00 in 76 W/m2
17:04 54.3 °F 44.4 °F 30.18 in WNW 10.0 mph 19.0 mph 69 % 0.00 in 62 W/m2
17:09 54.1 °F 44.2 °F 30.18 in WNW 10.0 mph 21.0 mph 69 % 0.00 in 62 W/m2
17:14 54.1 °F 43.8 °F 30.18 in WNW 11.0 mph 21.0 mph 68 % 0.00 in 56 W/m2
17:19 54.0 °F 44.0 °F 30.19 in WNW 10.0 mph 18.0 mph 69 % 0.00 in 53 W/m2
17:24 53.8 °F 43.5 °F 30.19 in WNW 10.0 mph 18.0 mph 68 % 0.00 in 46 W/m2
17:29 53.8 °F 43.5 °F 30.18 in WNW 11.0 mph 19.0 mph 68 % 0.00 in 37 W/m2
17:34 53.6 °F 43.3 °F 30.18 in WNW 10.0 mph 19.0 mph 68 % 0.00 in 33 W/m2
17:39 53.4 °F 43.1 °F 30.18 in WNW 9.0 mph 15.0 mph 68 % 0.00 in 28 W/m2
17:44 53.4 °F 43.5 °F 30.18 in WNW 9.0 mph 19.0 mph 69 % 0.00 in 26 W/m2
17:49 53.2 °F 43.3 °F 30.18 in WNW 10.0 mph 19.0 mph 69 % 0.00 in 21 W/m2
17:54 53.2 °F 43.7 °F 30.18 in WNW 9.0 mph 18.0 mph 70 % 0.00 in 16 W/m2
17:59 53.1 °F 43.5 °F 30.18 in WNW 8.0 mph 14.0 mph 70 % 0.00 in 12 W/m2
18:04 53.1 °F 43.5 °F 30.18 in WNW 8.0 mph 14.0 mph 70 % 0.00 in 9 W/m2
18:09 53.1 °F 43.9 °F 30.18 in WNW 7.0 mph 14.0 mph 71 % 0.00 in 7 W/m2
18:14 52.9 °F 43.7 °F 30.18 in WNW 7.0 mph 13.0 mph 71 % 0.00 in 7 W/m2
18:19 52.9 °F 43.7 °F 30.19 in WNW 6.0 mph 13.0 mph 71 % 0.00 in 5 W/m2
18:24 52.9 °F 43.7 °F 30.19 in West 5.0 mph 9.0 mph 71 % 0.00 in 0 W/m2
18:29 52.7 °F 43.6 °F 30.19 in West 5.0 mph 9.0 mph 71 % 0.00 in 0 W/m2
18:34 52.5 °F 43.4 °F 30.18 in West 6.0 mph 14.0 mph 71 % 0.00 in 0 W/m2
18:39 52.5 °F 43.4 °F 30.18 in West 8.0 mph 16.0 mph 71 % 0.00 in 0 W/m2
18:44 52.7 °F 43.9 °F 30.18 in West 8.0 mph 16.0 mph 72 % 0.00 in 5 W/m2
18:49 52.5 °F 43.8 °F 30.18 in West 7.0 mph 14.0 mph 72 % 0.00 in 0 W/m2
18:54 52.5 °F 44.1 °F 30.18 in West 7.0 mph 11.0 mph 73 % 0.00 in 0 W/m2
18:59 52.5 °F 44.1 °F 30.18 in West 6.0 mph 11.0 mph 73 % 0.00 in 0 W/m2
19:04 52.5 °F 44.1 °F 30.18 in West 5.0 mph 10.0 mph 73 % 0.00 in 0 W/m2
19:09 52.3 °F 43.9 °F 30.18 in WNW 4.0 mph 8.0 mph 73 % 0.00 in 0 W/m2
19:14 52.3 °F 44.3 °F 30.18 in WNW 4.0 mph 8.0 mph 74 % 0.00 in 0 W/m2
19:19 52.3 °F 44.3 °F 30.18 in WNW 3.0 mph 8.0 mph 74 % 0.00 in 0 W/m2
19:24 52.2 °F 44.1 °F 30.18 in West 3.0 mph 10.0 mph 74 % 0.00 in 0 W/m2
19:29 52.2 °F 44.5 °F 30.18 in West 4.0 mph 12.0 mph 75 % 0.00 in 0 W/m2
19:31 52.2 °F 44.5 °F 30.18 in West 5.0 mph 12.0 mph 75 % 0.00 in 0 W/m2
19:36 52.2 °F 44.5 °F 30.19 in West 7.0 mph 12.0 mph 75 % 0.00 in 0 W/m2
19:41 52.2 °F 44.5 °F 30.18 in West 6.0 mph 10.0 mph 75 % 0.00 in 0 W/m2
19:46 52.2 °F 44.5 °F 30.18 in West 6.0 mph 12.0 mph 75 % 0.00 in 0 W/m2
19:51 52.2 °F 44.8 °F 30.18 in West 6.0 mph 12.0 mph 76 % 0.00 in 0 W/m2
19:52 52.2 °F 44.8 °F 30.18 in West 5.0 mph 9.0 mph 76 % 0.00 in 0 W/m2
19:58 52.2 °F 44.8 °F 30.18 in West 6.0 mph 10.0 mph 76 % 0.00 in 0 W/m2
20:03 52.3 °F 45.3 °F 30.18 in West 7.0 mph 10.0 mph 77 % 0.00 in 0 W/m2
20:08 52.3 °F 45.3 °F 30.18 in West 6.0 mph 10.0 mph 77 % 0.00 in 0 W/m2
20:13 52.3 °F 45.3 °F 30.18 in West 5.0 mph 10.0 mph 77 % 0.00 in 0 W/m2
20:18 52.3 °F 45.3 °F 30.18 in West 6.0 mph 13.0 mph 77 % 0.00 in 0 W/m2
20:28 52.5 °F 45.9 °F 30.18 in West 6.0 mph 12.0 mph 78 % 0.00 in 0 W/m2
20:33 52.5 °F 45.9 °F 30.18 in West 6.0 mph 10.0 mph 78 % 0.00 in 0 W/m2
20:38 52.5 °F 45.9 °F 30.18 in West 7.0 mph 15.0 mph 78 % 0.00 in 0 W/m2
20:43 52.3 °F 45.7 °F 30.18 in West 8.0 mph 15.0 mph 78 % 0.00 in 0 W/m2
20:48 52.3 °F 45.7 °F 30.18 in West 9.0 mph 18.0 mph 78 % 0.00 in 0 W/m2
20:53 52.3 °F 45.7 °F 30.18 in West 9.0 mph 18.0 mph 78 % 0.00 in 0 W/m2
20:58 52.3 °F 45.7 °F 30.18 in West 9.0 mph 15.0 mph 78 % 0.00 in 0 W/m2
21:03 52.3 °F 45.7 °F 30.18 in West 9.0 mph 15.0 mph 78 % 0.00 in 0 W/m2
21:08 52.3 °F 46.0 °F 30.18 in West 8.0 mph 15.0 mph 79 % 0.00 in 0 W/m2
21:13 52.3 °F 46.0 °F 30.18 in WSW 7.0 mph 14.0 mph 79 % 0.00 in 0 W/m2
21:18 52.3 °F 46.0 °F 30.18 in WSW 5.0 mph 11.0 mph 79 % 0.00 in 0 W/m2
21:23 52.3 °F 46.4 °F 30.19 in WSW 4.0 mph 9.0 mph 80 % 0.00 in 0 W/m2
21:28 52.3 °F 46.4 °F 30.18 in WSW 4.0 mph 9.0 mph 80 % 0.00 in 0 W/m2
21:33 52.3 °F 46.4 °F 30.18 in WSW 4.0 mph 9.0 mph 80 % 0.00 in 0 W/m2
21:38 52.3 °F 46.4 °F 30.18 in WSW 5.0 mph 12.0 mph 80 % 0.00 in 0 W/m2
21:43 52.5 °F 46.5 °F 30.18 in WSW 6.0 mph 12.0 mph 80 % 0.00 in 0 W/m2
21:48 52.5 °F 46.5 °F 30.18 in West 7.0 mph 15.0 mph 80 % 0.00 in 0 W/m2
21:53 52.5 °F 46.5 °F 30.17 in WSW 8.0 mph 15.0 mph 80 % 0.00 in 0 W/m2
21:58 52.5 °F 46.5 °F 30.17 in WSW 8.0 mph 15.0 mph 80 % 0.00 in 0 W/m2
22:03 52.5 °F 46.5 °F 30.17 in WSW 8.0 mph 15.0 mph 80 % 0.00 in 0 W/m2
22:08 52.5 °F 46.9 °F 30.17 in WSW 8.0 mph 14.0 mph 81 % 0.00 in 0 W/m2
22:13 52.5 °F 46.9 °F 30.17 in WSW 9.0 mph 15.0 mph 81 % 0.00 in 0 W/m2
22:19 52.5 °F 46.5 °F 30.17 in WSW 10.0 mph 16.0 mph 80 % 0.00 in 0 W/m2
22:20 52.5 °F 46.5 °F 30.17 in WSW 10.0 mph 16.0 mph 80 % 0.00 in 0 W/m2
22:25 52.5 °F 46.5 °F 30.17 in WSW 10.0 mph 18.0 mph 80 % 0.00 in 0 W/m2
22:35 52.7 °F 46.7 °F 30.17 in WSW 9.0 mph 14.0 mph 80 % 0.00 in 0 W/m2
22:40 52.7 °F 46.7 °F 30.17 in WSW 9.0 mph 20.0 mph 80 % 0.00 in 0 W/m2
22:45 52.9 °F 46.9 °F 30.17 in West 10.0 mph 20.0 mph 80 % 0.00 in 0 W/m2
22:50 52.9 °F 46.9 °F 30.16 in WSW 11.0 mph 20.0 mph 80 % 0.00 in 0 W/m2
22:55 52.9 °F 46.9 °F 30.16 in West 11.0 mph 20.0 mph 80 % 0.00 in 0 W/m2
23:00 52.7 °F 46.7 °F 30.16 in West 10.0 mph 19.0 mph 80 % 0.00 in 0 W/m2
23:05 52.7 °F 46.7 °F 30.16 in West 10.0 mph 15.0 mph 80 % 0.00 in 0 W/m2
23:10 52.5 °F 46.5 °F 30.16 in West 9.0 mph 15.0 mph 80 % 0.00 in 0 W/m2
23:15 52.5 °F 46.5 °F 30.16 in West 9.0 mph 15.0 mph 80 % 0.00 in 0 W/m2
23:20 52.5 °F 46.5 °F 30.16 in West 10.0 mph 19.0 mph 80 % 0.00 in 0 W/m2
23:25 52.3 °F 46.4 °F 30.16 in West 9.0 mph 19.0 mph 80 % 0.00 in 0 W/m2
23:30 52.3 °F 46.4 °F 30.16 in West 8.0 mph 14.0 mph 80 % 0.00 in 0 W/m2
23:35 52.3 °F 46.4 °F 30.17 in West 8.0 mph 14.0 mph 80 % 0.00 in 0 W/m2
23:40 52.3 °F 46.4 °F 30.16 in West 8.0 mph 14.0 mph 80 % 0.00 in 0 W/m2
23:45 52.3 °F 46.4 °F 30.16 in West 9.0 mph 19.0 mph 80 % 0.00 in 0 W/m2
23:50 52.3 °F 46.4 °F 30.16 in West 10.0 mph 19.0 mph 80 % 0.00 in 0 W/m2
23:55 52.2 °F 46.2 °F 30.16 in West 9.0 mph 18.0 mph 80 % 0.00 in 0 W/m2
Delerius-Weather
Compliments of Weather Underground - 2.25 mb

Data updates at regular intervals.